7 * 24
多渠道服务支持
NUSAT-53(命名为“JANE GOODALL”,NORAD编号68432)是一颗纪念著名动物学家、自然资源保护者珍·古道尔的小型卫星,以她的名字命名,延续了她推动全球环境保护与生物多样性保护的理念。该卫星纳入商业卫星发射任务,目前运行在近地轨道,主要用于空间技术验证和环境监测相关技术演示,作为微小卫星平台技术试验的载体,同时承载着科普环保理念,激励公众关注全球生态可持续发展,致敬珍·古道尔毕生对自然保护事业的贡献。
阿根廷
(AR)
| 数据来源 | 国际轨道数据 |
| 星历时间: | 2026-06-13T04:25:05+0800 4小时前 查看轨道信息 |
| 半长轴: | 6888.416km |
| 偏心率: | 0.0003898 |
| 轨道倾角: | 97.455° |
| 近地点辐角 | 63.209° |
| 升交点赤经 | 122.406° |
| 平近点角 | 296.954° |
| 近地点: | 507.593km |
| 远地点: | 512.965km |
| 周期: | 94.828分钟 |
| 每日圈数: | 15.185313 |